| time (UTC) | temp F | wind direction | speed MPH | gust MPH | rain 1hr in | rain 24hr in | rain mn in | humidity % | barometer mb |
| 20260901124822 | 65 | 270 | 0.0 | 0.0 | 0.00 | 0.21 | 0.00 | 73 | 1018.9 |
| 20260901122923 | 65 | 315 | 2.0 | 3.0 | 0.00 | 0.21 | 0.00 | 73 | 1018.9 |
| 20260901122022 | 65 | 315 | 0.0 | 0.0 | 0.00 | 0.21 | 0.00 | 74 | 1019.0 |
| 20260901121008 | 65 | 315 | 0.0 | 0.0 | 0.00 | 0.21 | 0.00 | 73 | 1019.0 |
| 20260901120107 | 65 | 315 | 0.0 | 0.0 | 0.00 | 0.21 | 0.00 | 74 | 1019.0 |
| 20260901115107 | 65 | 315 | 0.0 | 0.0 | 0.00 | 0.21 | 0.00 | 74 | 1019.0 |
| 20260901114107 | 66 | 315 | 0.0 | 0.0 | 0.00 | 0.21 | 0.00 | 72 | 1019.1 |
| 20260901114022 | 66 | 315 | 0.0 | 0.0 | 0.00 | 0.21 | 0.00 | 73 | 1019.0 |
| 20260901113006 | 66 | 315 | 0.0 | 0.0 | 0.00 | 0.21 | 0.00 | 71 | 1019.0 |
| 20260901112007 | 66 | 315 | 2.0 | 3.0 | 0.00 | 0.21 | 0.00 | 71 | 1019.0 |
| 20260901111106 | 66 | 337 | 0.0 | 1.0 | 0.00 | 0.21 | 0.00 | 72 | 1019.1 |
| 20260901105208 | 66 | 337 | 1.0 | 2.0 | 0.00 | 0.21 | 0.00 | 71 | 1018.9 |
| 20260901104306 | 66 | 247 | 0.0 | 0.0 | 0.00 | 0.21 | 0.00 | 70 | 1018.8 |
| 20260901102406 | 67 | 292 | 0.0 | 0.0 | 0.00 | 0.21 | 0.00 | 69 | 1018.8 |
| 20260901101408 | 67 | 292 | 0.0 | 0.0 | 0.00 | 0.21 | 0.00 | 70 | 1019.0 |
| 20260901101322 | 67 | 292 | 0.0 | 0.0 | 0.00 | 0.21 | 0.00 | 69 | 1019.0 |
| 20260901100308 | 67 | 360 | 0.0 | 0.0 | 0.00 | 0.21 | 0.00 | 70 | 1018.9 |
| 20260901095407 | 67 | 15 | 1.0 | 2.0 | 0.00 | 0.21 | 0.00 | 70 | 1019.0 |
| 20260901094406 | 66 | 337 | 1.0 | 2.0 | 0.00 | 0.21 | 0.00 | 70 | 1018.9 |
| 20260901093421 | 67 | 360 | 0.0 | 0.0 | 0.00 | 0.21 | 0.00 | 69 | 1019.1 |
| 20260901092505 | 67 | 360 | 0.0 | 0.0 | 0.00 | 0.21 | 0.00 | 70 | 1019.0 |
| 20260901090606 | 67 | 360 | 1.0 | 2.0 | 0.00 | 0.21 | 0.00 | 70 | 1019.1 |
| 20260901085621 | 67 | 360 | 0.0 | 0.0 | 0.00 | 0.21 | 0.00 | 70 | 1019.2 |
| 20260901084706 | 67 | 360 | 0.0 | 0.0 | 0.00 | 0.21 | 0.00 | 69 | 1019.3 |
| 20260901084623 | 67 | 360 | 0.0 | 0.0 | 0.00 | 0.21 | 0.00 | 68 | 1019.3 |
| 20260901083624 | 67 | 360 | 0.0 | 0.0 | 0.00 | 0.21 | 0.00 | 67 | 1019.3 |
| 20260901082721 | 68 | 360 | 0.0 | 0.0 | 0.00 | 0.21 | 0.00 | 66 | 1019.4 |
| 20260901081722 | 68 | 360 | 1.0 | 2.0 | 0.00 | 0.21 | 0.00 | 66 | 1019.4 |
| 20260901080621 | 69 | 270 | 0.0 | 0.0 | 0.00 | 0.21 | 0.00 | 64 | 1019.4 |
| 20260901075707 | 69 | 270 | 0.0 | 0.0 | 0.00 | 0.21 | 0.00 | 63 | 1019.3 |
| 20260901074722 | 69 | 270 | 0.0 | 0.0 | 0.00 | 0.21 | 0.00 | 62 | 1019.3 |
| 20260901073706 | 70 | 270 | 0.0 | 1.0 | 0.00 | 0.21 | 0.00 | 59 | 1019.4 |
| 20260901072706 | 71 | 270 | 0.0 | 0.0 | 0.00 | 0.21 | 0.00 | 57 | 1019.4 |
| 20260901071804 | 72 | 122 | 2.0 | 3.0 | 0.00 | 0.21 | 0.00 | 54 | 1019.4 |
| 20260901070807 | 72 | 90 | 2.0 | 4.0 | 0.00 | 0.21 | 0.00 | 54 | 1019.2 |
| 20260901065905 | 73 | 135 | 0.0 | 2.0 | 0.00 | 0.21 | 0.00 | 53 | 1019.1 |
| 20260901064907 | 72 | 99 | 3.0 | 5.0 | 0.00 | 0.21 | 0.00 | 54 | 1019.0 |
| 20260901064005 | 70 | 112 | 1.0 | 4.0 | 0.00 | 0.21 | 0.00 | 58 | 1018.9 |
| 20260901063006 | 70 | 112 | 0.0 | 0.0 | 0.00 | 0.21 | 0.00 | 59 | 1018.9 |
| 20260901062006 | 70 | 180 | 0.0 | 0.0 | 0.00 | 0.21 | 0.00 | 58 | 1019.2 |
| 20260901061008 | 70 | 180 | 0.0 | 0.0 | 0.00 | 0.21 | 0.00 | 58 | 1018.8 |
| 20260901060021 | 70 | 202 | 0.0 | 0.0 | 0.00 | 0.21 | 0.00 | 57 | 1018.8 |
| 20260901055004 | 70 | 45 | 1.0 | 2.0 | 0.00 | 0.21 | 0.21 | 56 | 1018.7 |
| 20260901054021 | 70 | 337 | 0.0 | 0.0 | 0.00 | 0.21 | 0.21 | 56 | 1018.9 |
| 20260901052004 | 70 | 22 | 1.0 | 2.0 | 0.00 | 0.21 | 0.21 | 56 | 1018.9 |
| 20260901051020 | 70 | 28 | 3.0 | 4.0 | 0.00 | 0.21 | 0.21 | 56 | 1018.8 |
| 20260901050006 | 71 | 337 | 1.0 | 2.0 | 0.00 | 0.21 | 0.21 | 56 | 1018.8 |
| 20260901044021 | 71 | 347 | 2.0 | 4.0 | 0.00 | 0.21 | 0.21 | 55 | 1018.7 |
| 20260901043022 | 71 | 67 | 0.0 | 0.0 | 0.00 | 0.21 | 0.21 | 54 | 1018.5 |
| 20260901042106 | 72 | 133 | 1.0 | 2.0 | 0.00 | 0.21 | 0.21 | 53 | 1018.7 |
| 20260901041120 | 71 | 45 | 0.0 | 0.0 | 0.00 | 0.21 | 0.21 | 54 | 1018.5 |
| 20260901040205 | 71 | 157 | 0.0 | 0.0 | 0.00 | 0.21 | 0.21 | 54 | 1018.6 |
| 20260901040105 | 71 | 157 | 0.0 | 0.0 | 0.00 | 0.21 | 0.21 | 53 | 1018.6 |
| 20260901035105 | 72 | 247 | 6.0 | 6.0 | 0.00 | 0.21 | 0.21 | 53 | 1018.1 |
| 20260901034108 | 72 | 264 | 7.0 | 11.0 | 0.00 | 0.21 | 0.21 | 54 | 1018.0 |
| 20260901033107 | 73 | 297 | 2.0 | 4.0 | 0.00 | 0.21 | 0.21 | 54 | 1017.7 |
| 20260901032205 | 73 | 253 | 5.0 | 9.0 | 0.00 | 0.21 | 0.21 | 53 | 1017.3 |
| 20260901030206 | 74 | 307 | 2.0 | 5.0 | 0.00 | 0.21 | 0.21 | 54 | 1017.1 |
| 20260901025306 | 75 | 270 | 0.0 | 0.0 | 0.00 | 0.21 | 0.21 | 55 | 1016.7 |
| 20260901024309 | 76 | 277 | 6.0 | 11.0 | 0.00 | 0.21 | 0.21 | 50 | 1016.3 |
| 20260901023323 | 80 | 303 | 6.0 | 8.0 | 0.00 | 0.21 | 0.21 | 44 | 1016.1 |
| 20260901022407 | 82 | 322 | 7.0 | 14.0 | 0.00 | 0.21 | 0.21 | 40 | 1015.7 |
| 20260901021408 | 82 | 90 | 7.0 | 12.0 | 0.00 | 0.21 | 0.21 | 44 | 1015.5 |
| 20260901020409 | 84 | 2 | 4.0 | 6.0 | 0.00 | 0.21 | 0.21 | 37 | 1015.2 |
| 20260901015408 | 85 | 63 | 6.0 | 10.0 | 0.00 | 0.21 | 0.21 | 34 | 1014.5 |
| 20260901013408 | 85 | 59 | 2.0 | 6.0 | 0.00 | 0.21 | 0.21 | 35 | 1014.2 |
| 20260901012423 | 86 | 60 | 5.0 | 8.0 | 0.00 | 0.21 | 0.21 | 35 | 1014.1 |
| 20260901011506 | 86 | 56 | 4.0 | 7.0 | 0.00 | 0.21 | 0.21 | 34 | 1014.2 |
| 20260901005606 | 86 | 80 | 7.0 | 11.0 | 0.00 | 0.21 | 0.21 | 35 | 1014.1 |
| 20260901002623 | 90 | 122 | 2.0 | 6.0 | 0.00 | 0.21 | 0.21 | 32 | 1014.1 |
| 20260901001621 | 90 | 87 | 4.0 | 7.0 | 0.00 | 0.21 | 0.21 | 31 | 1014.3 |
| 20260901000706 | 90 | 75 | 3.0 | 6.0 | 0.00 | 0.21 | 0.21 | 32 | 1014.1 |
| 20260831235706 | 89 | 171 | 1.0 | 4.0 | 0.00 | 0.21 | 0.21 | 33 | 1014.4 |
| 20260831234708 | 90 | 154 | 3.0 | 7.0 | 0.00 | 0.21 | 0.21 | 33 | 1014.4 |
| 20260831233705 | 91 | 147 | 4.0 | 8.0 | 0.00 | 0.21 | 0.21 | 33 | 1014.6 |
| 20260831232707 | 90 | 119 | 1.0 | 3.0 | 0.00 | 0.21 | 0.21 | 32 | 1014.7 |
| 20260831231805 | 92 | 151 | 1.0 | 3.0 | 0.00 | 0.21 | 0.21 | 31 | 1014.8 |
| 20260831230806 | 91 | 53 | 2.0 | 3.0 | 0.00 | 0.21 | 0.21 | 32 | 1014.7 |
| 20260831224807 | 89 | 75 | 6.0 | 9.0 | 0.00 | 0.21 | 0.21 | 33 | 1014.7 |
| 20260831222807 | 86 | 73 | 0.0 | 1.0 | 0.00 | 0.21 | 0.21 | 37 | 1015.1 |
| 20260831221807 | 85 | 73 | 6.0 | 12.0 | 0.00 | 0.21 | 0.21 | 37 | 1014.9 |
| 20260831214905 | 86 | 71 | 6.0 | 10.0 | 0.00 | 0.21 | 0.21 | 36 | 1015.3 |
| 20260831213921 | 86 | 43 | 7.0 | 16.0 | 0.00 | 0.21 | 0.21 | 37 | 1015.3 |
| 20260831212907 | 86 | 59 | 7.0 | 10.0 | 0.00 | 0.21 | 0.21 | 38 | 1015.6 |
| 20260831211006 | 86 | 66 | 7.0 | 14.0 | 0.01 | 0.21 | 0.21 | 38 | 1015.9 |
| 20260831210024 | 84 | 92 | 2.0 | 4.0 | 0.01 | 0.21 | 0.21 | 40 | 1016.1 |
| 20260831205022 | 84 | 112 | 2.0 | 3.0 | 0.01 | 0.21 | 0.21 | 42 | 1016.6 |
| 20260831204104 | 83 | 77 | 3.0 | 7.0 | 0.02 | 0.21 | 0.21 | 44 | 1016.6 |
| 20260831203106 | 81 | 67 | 0.0 | 1.0 | 0.02 | 0.21 | 0.21 | 46 | 1016.9 |
| 20260831202104 | 79 | 1 | 1.0 | 4.0 | 0.02 | 0.21 | 0.21 | 55 | 1017.0 |
| 20260831201124 | 76 | 302 | 6.0 | 9.0 | 0.01 | 0.20 | 0.20 | 67 | 1017.2 |
| 20260831200221 | 74 | 336 | 2.0 | 4.0 | 0.02 | 0.20 | 0.20 | 70 | 1016.7 |
| 20260831195307 | 75 | 103 | 3.0 | 6.0 | 0.03 | 0.20 | 0.20 | 71 | 1017.4 |
| 20260831194308 | 76 | 166 | 5.0 | 7.0 | 0.02 | 0.19 | 0.19 | 69 | 1017.6 |
| 20260831192306 | 74 | 45 | 0.0 | 0.0 | 0.18 | 0.19 | 0.19 | 75 | 1017.2 |
| 20260831191405 | 74 | 247 | 0.0 | 0.0 | 0.19 | 0.19 | 0.19 | 73 | 1017.4 |
| 20260831190405 | 75 | 255 | 1.0 | 4.0 | 0.18 | 0.18 | 0.18 | 70 | 1017.8 |
| 20260831185421 | 74 | 90 | 2.0 | 4.0 | 0.17 | 0.17 | 0.17 | 71 | 1017.8 |
| 20260831184508 | 72 | 67 | 2.0 | 5.0 | 0.17 | 0.17 | 0.17 | 73 | 1017.9 |
| 20260831183605 | 72 | 14 | 3.0 | 5.0 | 0.17 | 0.17 | 0.17 | 68 | 1017.9 |
| 20260831182624 | 79 | 98 | 4.0 | 7.0 | 0.05 | 0.05 | 0.04 | 52 | 1018.2 |
| 20260831180706 | 82 | 98 | 6.0 | 9.0 | 0.00 | 0.00 | 0.00 | 44 | 1017.3 |
| 20260831175707 | 83 | 114 | 11.0 | 16.0 | 0.00 | 0.00 | 0.00 | 42 | 1017.3 |
| 20260831174804 | 85 | 108 | 7.0 | 13.0 | 0.00 | 0.00 | 0.00 | 38 | 1017.3 |
| 20260831172905 | 85 | 89 | 5.0 | 8.0 | 0.00 | 0.00 | 0.00 | 39 | 1017.2 |
| 20260831172820 | 85 | 83 | 7.0 | 10.0 | 0.00 | 0.00 | 0.00 | 38 | 1017.2 |
| 20260831171907 | 86 | 86 | 4.0 | 8.0 | 0.00 | 0.00 | 0.00 | 38 | 1017.2 |
| 20260831171806 | 86 | 99 | 5.0 | 7.0 | 0.00 | 0.00 | 0.00 | 38 | 1017.3 |
| 20260831170822 | 86 | 59 | 5.0 | 8.0 | 0.00 | 0.00 | 0.00 | 36 | 1017.3 |
| 20260831170706 | 87 | 66 | 5.0 | 8.0 | 0.00 | 0.00 | 0.00 | 37 | 1017.3 |
| 20260831164707 | 85 | 95 | 5.0 | 10.0 | 0.00 | 0.00 | 0.00 | 38 | 1017.4 |
| 20260831163706 | 84 | 87 | 5.0 | 8.0 | 0.00 | 0.00 | 0.00 | 39 | 1017.6 |
| 20260831162705 | 84 | 83 | 7.0 | 12.0 | 0.00 | 0.00 | 0.00 | 38 | 1017.7 |
| 20260831161707 | 85 | 72 | 7.0 | 12.0 | 0.00 | 0.00 | 0.00 | 38 | 1017.6 |
| 20260831160704 | 84 | 81 | 5.0 | 9.0 | 0.00 | 0.00 | 0.00 | 38 | 1017.5 |
| 20260831160605 | 84 | 71 | 4.0 | 8.0 | 0.00 | 0.00 | 0.00 | 39 | 1017.4 |
| 20260831155622 | 84 | 113 | 3.0 | 5.0 | 0.00 | 0.00 | 0.00 | 39 | 1017.5 |
| 20260831154606 | 83 | 97 | 2.0 | 4.0 | 0.00 | 0.00 | 0.00 | 35 | 1017.5 |
| 20260831153621 | 81 | 225 | 0.0 | 0.0 | 0.00 | 0.00 | 0.00 | 35 | 1017.6 |
| 20260831152622 | 80 | 247 | 0.0 | 0.0 | 0.00 | 0.00 | 0.00 | 36 | 1017.6 |
| 20260831151703 | 79 | 246 | 2.0 | 3.0 | 0.00 | 0.00 | 0.00 | 36 | 1017.6 |
| 20260831150706 | 77 | 292 | 1.0 | 4.0 | 0.00 | 0.00 | 0.00 | 36 | 1017.5 |
| 20260831145706 | 77 | 292 | 1.0 | 3.0 | 0.00 | 0.00 | 0.00 | 37 | 1017.6 |
| 20260831144805 | 76 | 315 | 1.0 | 2.0 | 0.00 | 0.00 | 0.00 | 38 | 1017.7 |
| 20260831142806 | 74 | 292 | 0.0 | 0.0 | 0.00 | 0.00 | 0.00 | 41 | 1017.5 |
| 20260831141821 | 73 | 303 | 0.0 | 1.0 | 0.00 | 0.00 | 0.00 | 43 | 1017.5 |
| 20260831140821 | 72 | 292 | 0.0 | 0.0 | 0.00 | 0.00 | 0.00 | 44 | 1017.4 |
| 20260831135907 | 71 | 292 | 0.0 | 0.0 | 0.00 | 0.00 | 0.00 | 45 | 1017.2 |
| 20260831135003 | 70 | 292 | 0.0 | 0.0 | 0.00 | 0.00 | 0.00 | 44 | 1017.2 |
| 20260831134019 | 69 | 302 | 3.0 | 3.0 | 0.00 | 0.00 | 0.00 | 48 | 1016.9 |
| 20260831133021 | 69 | 315 | 0.0 | 0.0 | 0.00 | 0.00 | 0.00 | 45 | 1016.8 |
| 20260831132107 | 69 | 315 | 0.0 | 0.0 | 0.00 | 0.00 | 0.00 | 46 | 1016.7 |